Flag for Gaza Strip Weather past 2 weeks in Gaza, Gaza Strip

Now
70 °F

Passing clouds.


Feels Like: 70 °F
Forecast: 65 / 80 °F
Wind: 6 mph from South

Location: Ben Gurion International Airport

Current Time: Jun 2, 2015 at 6:26:10 AM

Latest Report: Jun 2, 2015 at 5:50 AM


Visibility: N/A

Pressure: 29.89 "Hg

Humidity: 73%

Dew point: 61 °F

Location of GazaLocation

Historic Weather in Gaza — Graph

°F

Gaza temperature yesterday

Maximum temperature yesterday: 77 °F (at 9:50 AM)
Minimum temperature yesterday: 64 °F (at 5:20 AM)
Average temperature yesterday: 73 °F

Past Weeks' High & Low Weather Summary

 TemperatureHumidityPressure
High109 °F (May 27, 4:20 PM)83% (May 21, 1:20 AM)30.01 "Hg (May 21, 1:20 AM)
Low63 °F (May 24, 5:50 AM)6% (May 18, 12:20 PM)29.65 "Hg (May 27, 4:50 PM)
Average78 °F54%29.87 "Hg
* Reported May 18 5:20 AM — Jun 2 5:20 AM, Gaza, Weather by CustomWeather, © 2015

Note: Actual official high and low records may vary slightly from our data, if they occured in-between our weather recording intervals... More about our weather records

Advertising

Gaza weather history for previous 24 hours

 ConditionsComfort  
Time TempWeatherWind HumidityBarometerVisibility
5:20 AM
Tue, Jun 2
70 °FPassing clouds.6 mph73%29.86 "HgN/A
4:50 AM70 °FPassing clouds.6 mph73%29.86 "HgN/A
4:20 AM70 °FPassing clouds.6 mph73%29.86 "HgN/A
3:50 AM70 °FPassing clouds.7 mph73%29.86 "HgN/A
3:20 AM70 °FPassing clouds.5 mph73%29.86 "HgN/A
2:50 AM70 °FPassing clouds.6 mph78%29.86 "HgN/A
2:20 AM70 °FPassing clouds.6 mph78%29.86 "HgN/A
1:50 AM70 °FPassing clouds.5 mph73%29.86 "HgN/A
1:20 AM68 °FPassing clouds.5 mph78%29.86 "HgN/A
12:50 AM70 °FClear.5 mph73%29.86 "Hg10 mi
12:20 AM70 °FClear.3 mph73%29.86 "Hg10 mi
11:50 PM
Mon, Jun 1
72 °FPassing clouds.5 mph69%29.89 "HgN/A
11:20 PM72 °FPassing clouds.3 mph69%29.89 "HgN/A
10:50 PM72 °FPassing clouds.6 mph69%29.89 "HgN/A
10:20 PM72 °FPassing clouds.7 mph73%29.89 "HgN/A
9:50 PM72 °FPassing clouds.8 mph69%29.86 "HgN/A
9:20 PM73 °FPassing clouds.8 mph69%29.86 "HgN/A
8:50 PM73 °FPassing clouds.9 mph69%29.86 "HgN/A
8:20 PM73 °FScattered clouds.10 mph69%29.86 "HgN/A
7:50 PM73 °FPartly sunny.9 mph69%29.86 "HgN/A
7:20 PM73 °FPassing clouds.10 mph69%29.83 "HgN/A
6:50 PM75 °FPassing clouds.10 mph65%29.83 "HgN/A
6:20 PM75 °FPassing clouds.12 mph65%29.83 "HgN/A
5:50 PM77 °FScattered clouds.13 mph61%29.83 "HgN/A
5:20 PM77 °FPartly sunny.14 mph61%29.83 "HgN/A
4:50 PM77 °FPartly sunny.15 mph61%29.83 "HgN/A
4:20 PM77 °FPartly sunny.14 mph61%29.83 "HgN/A
3:50 PM77 °FPartly sunny.14 mph65%29.83 "HgN/A
3:20 PM77 °FPartly sunny.14 mph65%29.83 "HgN/A
2:50 PM77 °FPartly sunny.N/A65%29.83 "HgN/A
2:20 PM77 °FPartly sunny.16 mph65%29.83 "HgN/A
1:50 PM77 °FPartly sunny.15 mph61%29.86 "HgN/A
1:20 PM77 °FPartly sunny.16 mph61%29.86 "HgN/A
11:50 AM77 °FPartly sunny.15 mph61%29.86 "HgN/A
11:20 AM77 °FPartly sunny.13 mph61%29.86 "HgN/A
10:50 AM77 °FPartly sunny.10 mph61%29.86 "HgN/A
10:20 AM77 °FScattered clouds.9 mph61%29.86 "HgN/A
9:50 AM77 °FScattered clouds.7 mph57%29.89 "HgN/A
9:20 AM75 °FScattered clouds.7 mph61%29.89 "HgN/A
8:50 AM75 °FPassing clouds.3 mph61%29.89 "HgN/A
8:20 AM73 °FPassing clouds.2 mph65%29.89 "HgN/A
7:50 AM72 °FPassing clouds.2 mph65%29.92 "HgN/A
7:20 AM70 °FPassing clouds.2 mph69%29.92 "HgN/A
6:20 AM66 °FPassing clouds.3 mph73%29.89 "HgN/A
Weather by CustomWeather, © 2015

See weather overviewHow to use our weather pages